Theta_e
310 310 310 308 307 307 309 309 309 309 308 307 307 305 303 303 299 298 298 301 299 300 303 300 303 305 306 307 308 307 306 308 308 306 307 307 308 307 306 306 306 307 307 308 306 304 304 304 305 306 306 305 305 305 304 304 304 303 304 305 306 304 304 303 303 304 305 307 307 305 305 305 307 308
311 309 308 308 307 309 308 307 308 308 308 306 306 306 305 304 301 300 298 299 302 301 304 303 302 305 305 306 307 307 306 309 307 306 306 306 307 307 306 306 305 305 304 303 302 302 304 305 305 305 305 305 304 304 304 304 303 303 304 304 304 302 302 302 303 304 305 305 305 305 305 305 306 307
309 308 308 308 307 309 308 308 307 308 308 306 305 305 306 305 304 302 301 297 302 304 302 304 305 305 305 306 306 306 306 307 307 306 306 306 307 309 307 306 306 305 303 302 303 306 306 304 304 303 304 304 304 304 303 303 302 303 303 302 302 302 302 302 302 304 304 305 305 305 305 305 306 306
309 309 308 308 308 308 307 307 307 306 307 306 305 305 305 304 305 303 301 300 300 304 304 304 306 306 306 306 305 305 306 306 308 306 306 306 308 306 307 306 306 305 304 303 303 305 304 303 303 303 304 303 304 303 302 302 302 302 302 301 301 301 301 301 302 304 305 304 304 304 304 304 305 305
308 307 306 306 306 307 307 306 306 305 305 306 305 305 304 304 304 303 302 300 301 304 306 305 305 306 307 305 306 304 305 305 305 306 306 307 306 305 306 306 305 305 304 302 302 301 301 301 303 303 303 303 302 302 301 301 301 302 301 301 301 300 301 301 300 301 303 303 303 303 303 303 303 304
308 307 306 305 306 307 305 306 305 305 304 303 303 303 304 302 303 304 302 301 301 301 304 304 306 305 306 303 306 304 304 304 305 304 305 305 305 305 305 306 306 304 303 302 302 302 301 301 301 301 300 299 299 300 299 299 299 300 300 298 297 300 301 301 301 300 301 301 302 302 302 303 303 304
307 307 307 307 308 308 307 306 306 306 305 305 303 304 303 303 303 304 304 303 301 301 302 305 304 304 305 305 303 304 304 304 304 303 303 303 304 305 306 306 306 303 302 302 302 302 301 301 300 300 300 300 299 299 299 299 299 298 299 298 299 299 299 299 299 300 300 301 301 301 301 302 302 304
307 307 307 307 307 307 306 305 305 305 306 305 304 303 304 304 303 304 305 305 303 302 301 304 302 304 303 304 304 304 304 303 303 303 303 304 303 305 305 305 305 304 303 302 302 302 302 301 300 300 299 299 299 299 299 299 298 298 299 299 299 298 298 298 298 298 299 300 300 300 300 300 302 303
307 307 306 306 307 307 305 305 304 305 305 304 303 302 303 303 303 304 305 305 304 303 301 302 304 304 304 305 305 304 302 303 302 303 302 302 303 305 305 306 305 305 303 303 303 302 301 301 301 300 300 300 299 299 299 299 299 299 299 299 299 299 298 298 298 298 298 298 298 300 300 299 300 302
308 307 306 306 306 305 305 304 304 304 304 304 303 302 302 302 303 304 304 304 304 302 301 302 302 304 303 302 303 303 303 301 300 300 301 303 304 304 304 304 305 306 305 305 305 303 302 302 302 301 300 299 299 299 299 299 300 300 300 300 299 299 299 298 298 298 298 298 298 298 299 299 299 300
308 307 306 305 304 304 304 303 302 302 303 303 302 302 302 302 303 303 303 302 302 302 301 302 302 301 303 303 300 302 303 302 300 299 299 300 302 303 303 303 304 305 304 304 302 303 303 303 303 301 300 300 301 300 300 301 301 300 299 298 298 298 298 298 298 298 297 297 297 297 296 297 298 299
307 307 305 304 303 302 302 302 301 300 302 303 302 301 302 302 302 301 301 301 300 300 300 300 300 301 300 301 302 303 302 299 299 300 299 298 299 300 303 303 303 304 304 303 303 303 303 303 303 301 301 302 301 301 301 302 303 301 300 298 297 297 297 297 297 297 297 297 297 297 296 296 296 298
307 306 304 302 300 298 296 297 296 296 296 302 300 300 301 300 300 300 300 300 299 299 299 300 301 300 299 299 299 298 298 297 296 299 300 299 300 301 301 303 304 303 302 302 302 302 303 302 302 302 301 302 302 302 301 301 301 300 298 297 297 297 297 297 297 297 297 297 297 297 297 296 296 296
306 304 303 300 299 298 298 298 298 295 295 295 298 299 299 298 298 298 298 298 298 298 298 299 299 298 298 297 299 298 298 299 300 299 299 298 299 300 300 301 303 304 303 301 301 302 303 302 301 301 300 301 302 300 300 300 300 299 297 297 297 297 297 297 297 297 297 297 297 297 297 297 296 296
305 303 300 301 302 302 300 301 296 295 295 294 294 295 297 297 298 297 295 296 297 296 298 299 299 297 297 297 299 298 297 299 298 298 299 299 299 298 297 295 300 304 303 301 300 300 303 302 300 300 300 300 301 300 300 299 298 298 297 297 297 296 296 296 296 296 296 296 297 297 297 296 296 296
306 306 305 306 307 306 305 304 300 299 295 294 293 293 293 293 293 295 298 295 296 296 297 298 298 298 297 297 298 297 298 298 298 299 299 299 298 298 297 297 297 301 305 301 301 300 302 302 300 299 300 300 301 300 299 298 297 297 297 296 296 296 296 295 296 296 296 296 296 296 296 296 295 295
307 306 306 304 303 300 299 302 304 304 300 297 294 295 294 294 292 290 289 292 298 298 298 298 297 297 297 296 297 298 298 300 298 298 298 298 299 299 298 298 299 301 304 304 301 299 300 300 299 298 300 300 300 300 299 298 297 296 296 296 295 296 295 295 295 295 295 295 296 296 296 295 295 295
308 307 306 305 304 304 304 304 303 304 305 305 304 303 301 300 300 295 292 290 290 295 299 299 297 299 300 297 298 300 301 299 297 297 297 298 299 299 299 301 302 303 304 304 301 298 298 300 298 297 299 300 299 299 298 296 296 296 296 296 295 295 295 295 294 295 295 295 295 296 296 295 295 294
308 307 308 308 306 306 303 300 298 303 304 306 305 305 305 306 306 303 303 304 303 302 302 302 301 301 302 302 301 301 301 301 300 300 299 299 301 301 302 302 303 302 304 306 301 295 297 299 297 297 298 299 298 299 297 297 296 296 295 295 295 295 294 294 294 294 295 295 295 295 295 295 294 294
309 307 307 307 306 305 301 297 287 294 299 304 304 304 305 305 306 306 306 299 299 303 304 304 304 304 304 299 303 303 301 301 302 301 301 302 301 299 298 297 300 299 302 306 301 296 296 299 297 297 298 299 297 298 298 297 297 296 295 295 295 294 294 294 294 294 295 295 295 295 295 295 294 294
308 306 306 307 305 305 301 295 289 291 293 302 304 303 304 305 305 304 305 300 293 293 294 293 293 293 292 292 292 292 292 296 301 301 298 298 299 297 295 297 297 298 300 304 302 297 295 298 297 296 298 297 296 297 297 298 296 295 295 295 295 294 294 294 294 295 295 295 295 296 296 295 294 294
308 307 307 308 306 305 301 290 289 290 296 303 305 304 304 303 303 303 303 305 304 295 293 293 292 292 292 292 292 293 294 294 296 301 297 299 299 296 296 295 297 298 300 300 301 296 295 297 298 296 297 297 297 296 297 297 297 296 295 295 295 294 294 294 294 295 296 296 296 297 296 296 295 297
308 306 305 303 299 305 298 287 291 290 295 302 304 303 304 302 301 302 302 302 302 303 305 306 308 306 301 307 306 305 297 296 301 303 302 301 299 296 296 296 296 295 297 301 303 296 296 296 297 296 294 293 295 296 296 296 296 295 295 295 294 295 294 294 294 295 295 295 296 296 297 296 295 299
307 306 302 300 290 290 288 289 289 290 289 297 302 304 304 302 300 301 300 301 301 302 303 305 304 304 304 304 304 305 304 304 304 304 303 302 300 298 297 297 297 295 296 301 304 297 297 298 296 298 296 292 290 294 295 294 295 294 294 293 293 294 295 295 295 295 295 295 295 296 297 297 295 299
305 305 301 300 294 289 290 290 289 290 287 290 299 302 303 302 300 295 298 300 300 303 304 304 303 302 302 303 303 303 302 301 302 303 304 303 302 300 298 297 296 297 299 303 299 301 296 297 295 296 296 296 295 294 294 294 294 294 294 293 293 293 294 295 295 295 295 295 295 296 296 297 295 297
305 305 304 302 296 290 290 290 290 289 290 288 297 308 292 289 289 299 298 299 301 303 303 302 301 301 301 301 302 301 301 301 302 303 303 303 303 302 302 299 297 296 297 302 297 301 298 296 296 295 295 295 295 296 292 291 293 293 294 293 293 293 294 294 294 294 295 296 297 297 298 297 296 295
305 305 306 304 293 290 290 289 290 290 289 290 297 293 290 290 289 292 297 299 302 302 301 301 300 300 301 301 300 300 300 302 303 302 303 303 303 303 303 302 302 300 301 302 303 303 300 297 299 296 294 295 295 295 292 290 290 293 292 292 293 293 293 294 293 294 295 295 298 299 298 297 295 295
306 306 305 298 290 290 290 289 289 289 290 295 292 289 289 289 290 296 298 300 302 300 299 299 299 300 300 300 300 300 302 301 302 302 303 303 303 302 302 302 302 302 302 302 302 302 301 298 298 299 297 295 293 292 290 292 292 292 290 291 292 292 293 293 293 294 294 295 299 299 299 302 301 299
300 295 292 290 289 290 289 289 288 290 290 288 288 289 289 292 297 299 300 302 302 299 298 298 299 299 300 301 301 303 303 304 303 302 302 303 303 303 303 303 303 303 303 303 303 302 301 300 299 299 298 297 294 294 295 291 291 291 291 290 288 291 292 292 293 293 293 294 297 297 296 297 297 299
288 288 289 288 288 289 291 295 297 297 299 293 290 290 291 299 298 301 302 301 299 298 299 298 298 299 300 302 303 304 304 302 300 300 300 299 300 301 300 300 300 302 303 302 302 302 301 301 300 299 297 297 297 296 296 294 291 291 291 290 290 291 291 291 292 293 292 292 295 296 295 296 295 297
298 296 297 297 294 295 292 292 293 294 295 298 300 299 300 300 300 302 302 301 300 299 300 298 298 300 301 303 302 301 301 300 300 302 299 299 298 300 299 298 298 298 301 302 302 302 302 302 301 300 296 296 297 298 298 297 294 291 291 291 290 286 289 290 291 291 292 292 294 295 295 294 294 295
302 301 294 294 300 300 299 298 298 298 298 298 298 299 300 301 301 301 298 297 301 301 302 299 299 300 301 300 300 300 300 300 300 302 300 299 298 298 298 297 296 297 298 300 301 302 299 302 301 300 299 298 297 299 299 297 295 294 291 291 290 291 291 289 290 291 292 292 292 293 293 293 293 293
301 300 298 297 297 296 295 294 297 298 298 299 299 301 303 303 302 302 301 302 301 301 300 298 298 299 300 300 300 299 299 299 299 301 301 301 300 299 298 295 295 295 295 297 299 300 301 302 303 301 300 300 301 301 298 294 294 296 294 291 290 289 290 291 291 291 291 291 290 290 291 292 293 292
299 298 298 299 296 297 296 296 297 298 299 300 301 303 298 302 301 300 300 301 300 302 299 298 298 299 299 299 299 299 298 299 300 300 297 300 300 298 296 296 296 297 296 296 297 298 299 300 301 301 301 301 302 303 298 293 293 295 295 294 291 289 290 291 291 291 291 290 289 288 289 290 291 292
296 297 297 297 297 297 298 297 297 298 298 296 298 299 300 300 299 298 302 301 299 298 295 298 299 299 298 297 300 298 297 299 299 300 299 300 300 298 297 296 295 296 296 297 296 297 298 298 297 297 297 297 297 299 295 296 295 292 295 295 294 290 290 291 291 291 290 290 290 288 288 288 289 291
295 297 296 296 295 298 297 296 298 298 299 299 299 298 297 296 298 299 298 301 300 298 299 297 296 296 298 299 298 299 298 296 298 299 298 299 299 298 298 297 296 297 297 297 296 298 298 298 296 294 293 292 292 291 292 293 294 295 293 292 294 291 291 291 291 292 290 289 289 289 286 286 287 290
294 294 295 295 296 296 296 297 299 299 299 299 298 299 298 298 299 301 302 298 301 298 299 298 298 297 298 297 297 295 297 297 295 298 296 298 299 298 296 295 295 296 297 298 298 298 298 296 296 295 293 292 290 290 291 293 292 293 294 291 291 290 289 290 292 291 291 290 289 288 288 287 287 289
291 294 294 294 296 296 298 298 299 298 299 298 299 299 300 301 302 302 303 302 300 299 299 299 296 297 298 297 297 297 297 297 298 295 296 297 295 296 295 294 295 297 297 297 298 298 298 297 296 296 293 291 290 290 290 293 294 294 292 296 292 291 292 290 290 290 290 291 289 290 290 287 288 290
292 292 293 294 295 296 297 297 297 298 299 299 300 299 299 300 301 301 301 300 301 300 300 299 297 298 296 299 296 297 297 297 296 296 295 297 297 297 296 296 295 296 297 296 297 298 298 297 297 296 295 293 291 292 293 292 292 295 292 290 294 291 292 292 290 291 290 289 289 291 290 293 293 290
292 292 293 294 295 296 296 297 297 298 298 298 299 300 300 299 301 300 299 297 299 296 300 298 297 297 297 298 297 298 298 299 297 297 297 296 296 297 296 294 295 295 294 294 294 296 297 297 297 297 297 297 295 295 296 295 295 297 296 294 289 292 291 293 290 290 290 290 290 289 288 289 288 290
295 294 294 295 296 296 296 296 297 297 298 298 300 298 300 301 300 300 300 299 296 297 297 297 296 297 296 296 297 297 296 296 297 297 297 296 295 295 294 292 295 296 295 293 295 295 297 298 298 290 297 298 298 300 295 293 291 293 294 295 289 289 290 291 294 291 291 292 292 289 288 287 287 288
298 297 298 298 298 297 297 297 297 297 298 298 299 300 300 300 299 296 297 294 299 295 297 297 295 296 296 298 298 297 296 296 296 296 295 296 296 295 294 294 295 295 295 294 293 296 299 301 301 300 301 297 296 294 292 291 291 292 294 296 294 288 288 289 288 290 295 293 291 289 288 288 288 287
298 298 298 299 299 298 298 297 297 297 297 298 298 300 297 298 298 297 298 296 296 297 297 297 297 297 298 298 298 297 297 296 296 296 295 295 295 295 295 295 295 294 294 295 297 297 297 300 300 298 297 296 295 294 292 292 293 293 294 294 295 296 292 288 290 288 288 288 290 291 291 289 288 285
299 299 299 300 300 299 299 298 298 297 298 299 298 298 296 297 297 298 298 297 297 296 297 297 297 297 297 297 298 298 298 297 297 296 295 295 295 296 296 295 295 294 296 296 296 296 297 297 297 298 296 295 295 295 293 293 293 293 294 294 294 294 295 294 292 287 288 289 289 288 289 290 289 290
300 300 300 301 301 300 299 298 298 298 298 296 298 297 297 298 297 297 297 297 297 297 296 297 297 297 297 297 298 297 297 295 296 297 296 296 296 296 296 296 296 295 295 296 295 295 296 296 296 296 296 295 295 295 294 293 293 293 294 293 292 294 295 294 294 294 294 294 289 287 288 288 288 288
Wind_Speed
6 5 6 5 5 5 4 4 4 4 4 4 4 5 6 6 5 5 5 5 6 8 9 8 8 10 10 10 10 11 11 11 13 14 13 13 12 13 17 17 15 17 12 9 7 8 10 12 14 18 21 22 23 23 23 24 24 25 24 24 25 24 23 20 22 22 22 22 21 20 20 20 19 18
5 5 5 5 5 4 4 4 4 3 3 4 4 4 5 5 5 5 5 5 5 8 8 8 9 10 11 10 10 10 11 12 15 15 15 14 13 17 17 13 14 14 5 3 6 9 13 14 16 18 19 20 22 25 24 23 25 25 25 24 23 23 23 22 21 21 22 22 22 21 21 21 20 19
5 6 6 5 4 3 3 3 3 3 3 3 4 4 3 4 5 5 4 5 4 6 8 8 9 10 11 11 10 10 11 12 14 14 14 15 17 17 14 13 12 11 4 6 11 15 15 13 13 15 18 19 22 25 25 23 22 23 23 21 20 19 20 21 22 22 22 22 21 21 21 21 21 20
5 5 5 3 3 2 3 3 2 2 2 3 3 3 3 3 4 4 4 5 7 6 7 8 9 10 11 11 11 12 11 12 14 15 14 16 18 14 13 14 14 14 12 13 18 17 13 10 12 14 16 18 20 22 20 20 21 20 20 19 19 19 19 19 20 21 22 22 23 22 20 20 21 20
6 6 6 5 4 3 2 2 2 2 2 2 2 3 3 3 4 4 5 6 7 6 6 7 8 9 10 11 11 12 12 13 14 15 14 15 14 14 13 13 14 13 10 17 18 15 11 10 11 16 18 17 16 16 16 16 16 17 18 17 16 17 18 19 18 19 20 21 21 22 21 20 20 19
5 5 5 5 5 4 3 3 3 3 3 3 4 3 3 4 4 4 5 6 7 9 8 8 9 8 9 10 11 12 13 14 14 16 15 13 14 14 13 13 12 13 14 16 14 12 11 14 17 17 17 16 15 15 16 15 15 15 16 16 15 15 17 18 18 18 18 19 19 20 19 19 19 19
6 6 5 5 3 2 3 3 3 2 3 3 3 3 3 3 4 4 5 6 7 9 9 8 9 9 9 9 11 13 12 13 14 16 15 14 13 13 14 13 12 13 16 16 10 13 17 18 17 17 18 16 14 15 15 14 14 15 16 15 15 13 13 14 15 16 16 17 17 17 18 18 19 19
6 6 5 4 4 3 3 2 3 3 2 2 3 3 3 3 4 4 5 5 6 7 9 8 9 9 9 9 11 11 12 13 14 14 14 15 14 14 14 14 13 15 15 12 16 17 17 18 18 19 17 14 16 17 15 14 14 14 15 15 14 11 12 13 13 14 14 15 16 16 16 17 19 19
6 5 5 5 4 3 3 2 3 3 3 3 3 4 4 4 4 4 5 6 6 7 8 8 7 8 8 9 9 11 13 13 13 13 14 15 15 14 13 13 12 16 13 14 15 17 18 18 19 18 17 19 19 15 13 12 13 14 14 13 11 9 11 13 14 14 14 14 13 16 17 17 18 18
5 5 5 4 4 3 3 3 3 3 3 3 3 4 4 5 5 5 6 5 6 7 7 8 8 8 8 9 9 11 12 14 14 13 14 14 13 13 13 12 12 11 11 12 13 15 17 18 18 18 19 19 15 11 13 14 13 10 7 6 6 9 11 13 14 14 14 15 15 14 15 16 17 18
6 5 5 5 4 3 3 3 3 2 2 2 3 4 4 5 5 5 5 6 6 6 7 7 7 8 8 9 10 11 12 12 13 15 15 14 12 12 14 14 12 12 12 12 13 14 14 17 17 19 19 18 18 21 18 15 10 10 7 9 8 9 11 12 14 15 16 17 17 15 14 13 15 17
6 6 6 5 5 4 4 4 3 4 3 2 3 4 4 5 5 5 5 5 6 6 7 7 7 7 8 8 9 10 11 12 12 11 13 16 16 15 13 13 14 13 13 14 13 13 16 17 18 19 19 18 18 18 17 17 8 14 15 11 11 11 12 13 14 15 17 17 18 17 15 13 13 15
6 6 6 6 5 6 6 6 5 4 4 4 3 4 5 5 5 5 5 5 6 6 6 6 7 8 8 9 10 11 11 13 14 14 14 13 14 14 14 13 12 13 15 15 14 13 14 19 19 18 16 15 17 17 17 16 19 19 15 12 14 14 15 15 16 17 17 17 17 17 16 15 13 14
7 7 6 7 9 7 5 4 3 1 2 4 4 4 5 5 5 5 6 5 6 6 6 6 8 8 8 9 10 10 11 12 13 14 14 14 14 14 12 12 11 12 15 15 14 14 14 18 17 16 17 16 14 15 15 15 15 15 16 15 14 15 14 15 17 18 19 18 17 16 16 15 14 14
7 7 8 7 8 7 7 6 7 5 5 4 3 4 5 4 3 5 5 6 6 6 6 6 7 8 9 10 10 10 11 11 13 13 13 13 14 14 16 16 13 11 15 14 15 16 15 15 17 18 18 16 15 17 16 17 19 23 18 15 15 15 15 15 16 17 19 20 18 17 16 15 14 13
7 7 7 6 5 6 6 7 8 8 9 9 9 8 8 8 8 6 3 5 6 7 7 7 7 8 8 10 9 10 11 12 12 13 13 13 14 15 15 14 15 14 15 14 12 13 13 15 16 17 16 17 17 16 15 19 20 17 16 20 22 21 18 18 17 18 18 20 20 18 15 14 14 13
7 6 5 5 4 3 1 4 6 7 8 9 11 11 10 10 10 9 8 7 5 5 7 7 8 7 8 9 9 10 11 12 13 13 13 13 14 14 14 15 15 16 15 10 10 13 15 17 18 16 16 18 17 17 19 19 18 23 25 24 24 21 18 19 20 19 19 19 20 18 15 14 14 13
6 6 6 6 5 5 5 2 2 2 2 5 7 8 8 8 9 10 11 10 11 9 7 7 7 8 8 8 9 11 11 12 12 13 14 14 14 14 15 17 14 14 13 8 10 13 15 16 15 17 18 17 17 18 20 19 21 21 22 22 20 17 20 22 23 22 20 20 19 18 15 14 13 13
5 5 5 6 5 5 3 2 4 4 3 2 1 2 1 3 5 8 7 4 3 3 5 6 7 7 7 8 10 10 10 10 11 11 14 15 14 14 14 12 12 13 12 8 10 14 15 14 17 19 17 17 18 16 18 20 22 23 23 22 21 22 23 23 22 22 21 20 20 18 15 14 13 13
5 5 5 4 5 5 5 3 2 4 5 5 3 2 2 2 3 2 2 4 7 7 6 6 7 8 9 11 11 12 11 10 10 10 12 11 11 13 12 13 13 12 12 8 10 13 15 15 16 16 15 18 18 16 17 21 23 24 23 22 22 22 22 22 22 22 21 20 19 18 16 14 14 13
6 6 7 6 5 6 6 6 5 4 3 6 3 2 2 3 3 2 1 9 11 11 12 14 16 16 17 18 18 17 17 11 9 9 10 12 13 13 13 13 13 13 13 7 10 14 15 14 13 15 18 18 14 14 15 17 22 24 23 22 22 21 20 21 22 22 21 20 19 18 17 14 13 13
6 4 7 6 2 6 7 8 5 5 5 6 2 2 3 3 3 2 4 4 4 11 15 16 18 18 17 17 17 15 11 12 8 7 12 13 12 12 12 13 13 13 12 9 12 14 13 15 14 15 14 11 9 11 13 17 19 23 22 23 22 20 20 21 22 21 19 18 18 17 16 14 11 8
6 6 6 3 6 4 9 8 5 4 6 5 2 3 4 3 3 3 6 6 8 8 8 8 6 7 7 6 7 8 9 11 8 10 10 11 11 12 12 13 13 12 11 11 15 15 14 17 17 17 13 11 8 4 10 14 15 16 18 20 20 20 21 23 21 19 20 20 20 19 18 14 8 7
6 6 6 6 6 7 8 7 6 5 4 5 4 4 4 3 3 6 7 8 8 9 9 8 8 8 7 7 7 8 9 10 11 11 11 10 11 11 12 12 12 12 12 12 12 16 12 13 14 13 12 11 12 15 11 14 14 15 16 16 15 20 19 17 15 19 19 19 20 19 19 16 9 6
7 7 7 7 9 8 8 7 6 6 5 4 5 5 4 4 5 7 8 9 11 10 8 7 7 7 7 7 8 8 9 9 10 11 11 11 11 11 11 12 12 12 13 12 11 13 13 13 14 14 13 13 15 12 10 11 12 14 16 15 16 15 13 13 12 15 17 19 18 18 17 15 10 9
7 7 8 8 11 11 9 8 7 7 6 5 5 3 5 5 6 7 8 9 9 7 6 6 7 7 8 8 8 8 9 9 10 11 11 11 12 11 10 11 13 13 13 13 14 12 13 12 15 17 16 14 14 9 14 14 10 12 14 13 12 13 13 12 13 13 12 12 13 11 12 15 9 13
6 7 6 9 15 12 11 9 8 7 7 4 6 8 8 6 8 7 8 9 9 6 6 6 7 7 7 8 8 8 9 9 9 9 10 12 13 12 10 11 11 12 12 12 13 13 12 12 12 15 17 14 11 10 10 13 16 17 16 16 14 12 11 11 12 12 12 12 10 15 11 11 8 10
6 7 7 9 13 11 10 8 8 8 6 6 6 4 7 9 8 8 9 10 6 6 6 6 6 7 7 7 8 8 9 9 9 9 9 11 12 12 12 13 13 12 12 12 13 13 12 13 13 12 16 13 9 8 11 11 10 13 17 16 12 11 11 12 11 12 13 12 10 11 12 9 1 2
9 9 14 13 11 9 8 6 5 6 8 12 12 13 12 10 7 9 9 5 5 6 6 6 6 7 7 7 7 8 9 9 8 9 8 9 10 11 12 13 12 10 8 9 12 13 13 12 13 13 13 12 10 10 7 10 8 12 15 17 16 16 13 12 11 11 12 12 9 10 10 9 10 10
3 5 8 9 8 6 4 4 5 7 7 11 14 13 11 7 9 9 6 4 5 6 6 6 6 6 7 7 7 8 8 8 9 9 9 10 10 10 11 11 11 12 11 11 12 12 13 13 13 13 13 12 13 14 11 9 8 10 12 15 16 12 11 14 13 11 13 13 11 11 9 8 10 12
6 8 6 4 4 0 3 7 8 8 6 4 6 7 8 9 9 9 5 4 5 6 5 5 6 6 6 7 7 7 8 8 9 9 9 10 10 10 10 11 11 12 12 12 12 12 12 12 13 13 13 13 12 11 12 9 7 10 12 13 14 13 15 15 12 13 12 12 11 9 11 13 13 13
6 5 5 4 3 4 5 6 6 7 8 8 8 8 10 10 11 8 4 6 7 7 5 5 6 6 6 7 7 7 8 8 9 9 9 10 10 10 11 11 11 12 12 12 12 12 11 11 12 12 13 12 11 9 9 10 8 7 11 12 13 13 12 13 13 13 13 12 11 11 10 10 12 13
6 6 6 6 6 6 6 5 9 9 8 8 9 10 9 6 6 7 6 5 4 5 4 5 6 6 6 6 6 7 8 8 9 9 9 9 9 10 10 11 12 12 13 12 12 12 12 11 11 12 12 13 10 6 8 9 9 8 9 11 11 12 13 13 12 13 13 12 10 10 10 11 11 12
6 7 6 6 6 7 8 8 8 7 8 8 8 8 7 6 6 7 6 5 6 4 4 6 7 6 6 6 6 7 8 8 9 9 9 9 9 10 10 11 12 11 11 12 12 12 12 11 11 11 12 12 8 2 4 5 8 8 7 9 9 10 10 11 12 12 12 10 9 9 10 11 11 12
4 4 5 5 5 8 8 5 6 5 5 5 4 5 6 6 7 5 6 6 6 5 4 6 6 6 5 5 6 7 7 8 9 8 8 9 8 9 10 11 12 12 12 12 12 12 12 11 9 11 12 12 11 4 5 4 4 5 8 5 5 8 10 8 10 11 10 10 10 10 8 10 11 10
5 5 4 4 4 6 5 4 7 6 7 5 6 4 4 5 6 6 5 6 6 6 6 4 4 4 5 7 7 7 8 7 8 8 8 8 8 9 10 10 10 11 11 11 12 12 12 12 12 10 11 12 11 11 7 2 3 3 4 6 5 4 8 8 8 9 10 10 10 9 10 10 10 10
4 5 7 7 7 7 6 9 8 8 7 7 6 7 5 5 7 7 7 6 6 6 7 5 5 5 4 4 6 5 5 6 5 7 5 8 8 9 8 9 10 10 11 11 11 11 11 12 12 12 11 11 13 12 12 5 4 4 5 3 5 2 5 9 8 8 11 9 10 10 9 8 10 11
3 5 7 8 9 9 8 8 6 6 6 6 7 7 8 8 7 7 6 7 7 5 6 5 5 4 5 5 4 5 6 6 6 5 5 8 6 6 7 7 8 10 10 11 11 11 11 11 12 12 11 11 11 13 13 11 8 5 6 6 4 5 4 5 7 9 8 10 9 7 6 7 10 9
6 7 8 9 9 8 7 6 5 4 6 6 7 7 8 8 8 7 7 6 7 7 6 5 6 5 4 7 6 5 5 6 6 6 6 6 7 8 8 7 8 9 10 10 11 10 11 11 12 12 13 9 10 10 11 11 9 8 4 7 5 4 5 5 6 5 7 8 10 7 4 2 3 7
8 8 9 9 9 9 8 8 7 7 7 8 8 9 9 6 7 7 7 6 6 5 7 5 4 5 5 5 5 5 6 8 5 5 5 5 5 7 7 5 7 7 7 8 8 10 10 11 11 12 12 11 8 7 8 7 6 7 3 4 7 4 3 5 5 6 5 3 4 8 10 9 8 9
9 9 10 10 9 8 8 8 8 8 8 8 9 8 8 7 7 7 7 5 4 4 5 4 5 6 5 6 6 6 5 5 5 5 6 5 5 5 5 6 6 6 7 7 9 9 10 11 11 11 9 8 8 11 7 9 12 9 10 4 4 4 2 4 4 3 5 5 4 5 9 9 8 9
9 10 10 10 10 10 10 10 9 8 8 8 7 6 7 6 5 5 4 5 8 5 6 6 5 6 7 7 5 4 5 5 5 5 5 5 6 6 5 6 6 5 6 7 7 9 10 11 11 10 9 7 6 9 10 11 10 11 8 7 2 5 1 3 4 6 3 5 4 5 3 3 1 5
9 9 9 10 10 10 10 10 9 8 6 6 6 7 5 4 4 4 4 5 5 6 6 6 7 7 6 4 4 5 5 5 5 5 5 5 5 5 6 6 5 6 6 6 8 7 7 9 10 9 7 7 7 7 10 8 8 8 8 7 7 5 2 5 2 2 3 6 6 5 2 2 3 6
8 9 10 9 8 9 8 7 5 5 5 5 4 6 5 5 5 5 5 6 6 6 6 6 6 5 4 5 5 5 5 5 5 6 6 5 5 5 5 5 5 5 5 6 6 7 6 6 6 7 8 8 7 8 8 8 10 9 7 5 5 5 7 1 3 2 3 2 5 1 2 3 4 2
8 9 8 7 6 5 4 3 3 4 5 5 4 5 5 6 6 5 5 5 6 6 6 5 5 5 5 6 6 6 5 7 7 6 6 6 5 5 6 5 6 5 6 6 7 7 6 6 7 5 6 7 7 6 6 6 9 10 7 5 5 6 6 7 7 6 2 2 7 8 7 7 6 7
Wind_Direction
91 88 85 87 84 64 55 50 45 40 34 34 31 31 30 6 7 6 358 29 351 2 353 347 354 355 348 341 335 331 333 341 343 330 326 326 322 332 326 309 300 301 312 304 300 286 293 294 305 319 324 325 325 323 319 316 313 312 310 309 305 301 301 303 298 296 295 296 299 299 300 300 300 301
100 95 90 83 72 58 68 65 47 42 30 37 36 33 36 27 19 4 352 348 12 342 341 354 341 343 342 339 333 331 331 337 336 328 327 325 327 325 307 299 305 322 3 300 279 294 303 315 324 324 322 322 324 323 321 319 317 314 312 311 310 308 301 295 291 290 291 294 294 295 295 297 298 298
109 104 99 95 90 92 75 76 69 49 28 31 42 34 33 39 18 360 342 330 2 342 333 339 337 334 338 335 331 331 331 334 328 329 328 328 325 315 321 333 328 334 320 322 322 323 326 329 324 318 318 320 324 324 322 317 313 311 311 308 304 302 301 298 293 290 288 287 289 291 293 294 295 297
112 110 102 92 109 128 114 81 66 78 61 37 33 31 24 35 18 351 340 321 316 336 333 330 327 336 333 332 333 332 331 329 330 332 329 326 322 327 328 328 333 331 347 347 344 339 334 324 317 313 316 316 314 317 312 308 304 301 298 295 296 297 294 292 291 290 291 291 290 288 289 291 292 294
114 111 108 106 99 80 76 87 86 45 57 69 51 30 11 23 13 358 341 325 319 321 334 327 331 330 333 330 335 332 332 332 333 330 328 327 328 329 331 329 326 325 339 346 337 332 329 315 305 321 317 309 305 302 300 296 296 292 290 290 288 288 288 290 290 291 294 295 295 294 291 289 289 288
115 115 110 106 90 74 66 41 45 48 38 42 36 31 19 9 4 360 338 328 313 318 326 331 329 329 338 327 336 335 334 333 331 328 329 330 331 331 332 330 329 345 346 328 325 334 326 326 328 321 313 307 303 298 294 291 289 287 286 284 281 279 284 287 290 294 297 300 298 297 294 291 291 289
126 124 124 115 110 113 99 86 64 46 34 30 45 7 11 360 350 343 333 315 314 318 322 325 327 334 334 332 334 336 337 334 330 327 329 331 331 330 330 330 332 337 325 317 331 341 336 329 325 324 321 318 305 297 291 288 288 288 287 285 279 276 279 281 284 286 292 296 299 299 298 295 292 291
131 124 119 118 118 105 84 68 79 52 22 30 35 3 4 343 359 339 314 304 310 314 312 325 326 332 330 334 334 336 336 335 331 329 327 327 329 327 328 331 332 327 313 335 351 342 333 332 332 328 323 318 313 307 306 298 289 284 285 284 285 284 283 283 282 282 280 283 286 289 292 292 292 290
127 127 116 112 108 106 100 78 55 52 24 15 30 14 360 353 357 334 317 313 313 312 311 317 322 329 333 333 333 342 338 334 331 330 329 330 328 328 329 329 328 320 337 347 338 338 337 335 331 325 328 323 315 313 308 295 285 279 279 297 311 300 283 278 278 279 279 281 278 282 289 291 291 292
132 128 120 109 98 91 83 68 52 29 24 14 22 23 360 353 348 326 316 318 316 312 316 319 325 336 337 335 341 343 339 334 332 331 330 328 329 330 332 332 329 333 338 342 342 337 338 336 331 335 330 321 320 324 321 312 289 301 358 8 320 285 278 277 279 279 281 281 281 278 280 284 285 286
131 123 114 103 91 84 82 67 40 19 15 17 27 18 358 354 338 326 333 324 320 323 323 324 333 333 340 340 341 341 339 335 333 332 330 329 331 333 335 332 332 330 332 337 336 332 334 340 341 335 328 333 346 341 325 316 335 78 7 338 319 300 288 281 279 280 282 285 287 284 278 275 277 281
134 127 114 100 86 75 50 37 36 14 2 359 36 19 1 348 339 337 334 332 335 334 333 335 337 336 336 344 342 335 336 336 334 337 332 327 331 336 335 333 330 331 332 332 335 340 345 342 337 336 341 345 340 327 327 333 7 351 350 341 327 315 306 298 294 293 295 294 291 287 281 273 269 272
138 124 113 98 90 74 72 48 39 27 355 345 23 22 7 352 349 343 339 343 343 339 334 339 340 336 340 345 342 340 343 342 335 330 330 324 327 330 329 329 329 331 332 332 335 340 346 345 345 346 342 343 338 339 340 338 342 335 332 321 312 315 315 310 306 301 297 294 290 286 282 276 268 268
143 127 112 106 113 132 140 150 165 202 2 0 355 7 9 4 358 352 345 346 348 340 336 346 339 342 341 344 341 335 338 332 329 327 329 327 329 328 326 321 328 332 333 332 336 337 345 343 343 344 340 343 342 340 339 341 333 325 317 320 329 328 321 315 309 305 298 293 289 283 278 275 268 263
151 144 135 145 165 175 177 179 189 185 216 217 245 270 287 305 341 2 353 349 345 345 337 337 342 341 337 338 333 337 336 334 331 328 328 325 329 332 332 333 330 340 338 333 333 337 344 346 341 339 343 343 340 341 341 340 336 331 334 337 328 320 316 312 308 301 298 295 289 281 275 272 267 260
167 157 160 168 173 196 194 184 178 193 199 203 212 219 220 232 252 264 313 342 346 346 335 332 339 335 341 327 332 337 333 331 324 327 326 328 328 327 328 328 328 326 330 334 336 335 341 345 343 342 342 341 342 340 338 344 337 342 342 333 328 323 320 319 315 310 305 302 294 282 271 267 265 257
165 163 163 162 165 125 84 245 204 187 190 210 212 209 214 231 237 249 258 255 265 311 313 325 324 339 331 325 332 332 326 322 321 324 324 326 323 321 322 324 319 328 334 340 342 332 341 344 345 340 339 343 344 340 345 345 347 347 341 333 326 327 328 325 321 316 313 309 306 288 269 263 261 256
173 171 171 174 176 170 202 211 212 251 225 204 213 203 207 216 219 231 238 241 249 255 269 302 319 323 327 325 321 319 317 321 325 325 320 320 317 321 322 317 320 326 338 15 339 330 340 346 342 339 342 343 340 340 343 346 348 341 336 331 326 329 329 326 320 316 312 310 310 302 275 261 257 253
174 185 191 186 169 167 145 69 3 317 267 251 256 298 274 251 195 203 208 229 288 286 283 312 311 311 312 311 307 305 309 311 315 315 312 309 313 318 313 317 331 330 348 18 353 338 336 348 340 341 341 339 340 344 343 350 347 342 337 334 333 330 326 320 315 310 309 308 307 304 288 264 256 251
176 179 190 189 170 164 139 109 311 313 321 292 274 274 282 269 257 230 151 232 228 246 283 295 297 293 285 280 283 285 287 294 288 302 308 311 325 323 329 332 333 337 341 30 360 340 337 346 343 334 335 340 339 338 344 346 344 340 336 332 330 327 323 320 315 311 307 304 302 299 290 271 253 250
181 182 188 197 170 179 145 151 211 259 289 287 273 285 275 273 286 329 115 204 224 239 246 252 255 259 264 266 267 271 272 261 270 288 313 334 331 330 334 335 335 338 336 16 2 340 333 345 343 335 338 338 327 333 336 340 341 339 337 337 332 328 325 322 317 313 308 303 300 295 289 270 253 245
188 141 47 349 204 177 141 157 209 264 287 282 268 279 274 286 301 337 344 321 273 219 232 244 247 250 253 257 259 260 263 270 259 316 334 330 329 332 334 332 333 331 337 0 3 335 337 338 345 338 333 314 320 323 331 337 337 336 338 340 336 332 331 329 325 318 315 313 309 305 295 278 249 243
191 160 181 95 20 49 130 155 195 248 286 298 305 303 285 294 315 346 336 319 317 321 316 308 297 284 268 279 319 340 326 318 325 343 332 328 331 332 331 330 330 328 334 348 356 337 336 342 344 345 335 328 312 313 328 336 338 337 336 338 337 334 335 334 328 324 325 320 316 310 303 289 235 246
198 166 177 146 124 128 146 156 183 233 272 298 319 301 298 310 317 349 323 308 305 303 297 305 315 318 324 325 329 340 344 344 346 339 334 331 332 330 328 329 332 326 325 336 356 342 333 336 335 345 336 328 325 328 334 334 339 339 337 335 335 336 334 330 327 326 326 322 317 315 309 297 214 242
199 182 183 190 155 165 156 174 194 220 233 265 295 290 309 5 351 326 299 296 288 280 288 314 319 330 330 337 338 342 345 346 344 335 329 332 334 330 326 327 328 323 322 337 348 337 332 335 339 339 332 330 324 319 324 325 330 343 341 339 337 335 333 333 329 330 325 319 313 307 302 294 214 218
210 197 195 182 160 169 173 190 200 222 232 238 267 323 15 324 320 294 294 287 281 291 322 320 326 333 336 341 341 342 344 344 339 331 328 331 333 329 327 326 325 323 327 335 336 333 332 335 343 340 338 332 323 324 327 326 327 342 340 340 340 333 332 332 329 326 320 317 314 307 303 299 229 216
225 200 209 136 153 172 178 189 206 220 233 233 249 271 285 284 281 281 275 276 277 314 318 320 329 334 335 338 341 346 341 336 330 325 332 331 331 327 325 325 321 320 323 330 335 334 336 333 338 339 337 335 320 318 328 333 333 338 344 347 342 337 332 333 331 330 327 321 322 327 296 269 226 220
236 218 140 136 155 170 179 195 208 229 229 256 290 266 266 273 278 276 278 263 291 312 312 322 335 330 336 338 343 345 338 331 328 334 335 332 328 330 329 328 327 324 328 336 340 343 341 337 336 341 340 337 327 327 326 323 329 339 340 339 339 340 340 340 337 339 337 338 349 1 7 8 116 206
8 37 106 132 152 166 174 199 230 247 247 248 255 263 269 272 272 268 259 280 313 308 316 325 327 324 336 338 342 337 329 328 333 339 335 330 326 331 328 327 325 331 336 338 335 341 342 341 339 340 336 335 336 341 328 321 327 342 346 342 345 341 339 344 342 345 342 338 348 10 10 6 7 340
323 321 99 120 137 146 176 199 231 240 247 228 232 243 250 260 264 263 277 300 303 312 313 316 320 328 331 332 340 328 330 341 346 344 337 334 336 333 334 332 336 339 341 340 336 341 344 342 341 341 337 334 339 342 331 323 335 346 352 352 338 334 351 344 344 349 352 347 343 6 7 11 8 2
210 186 187 138 180 230 198 228 266 283 284 253 223 228 234 240 252 254 249 290 303 304 296 310 322 320 322 324 328 334 339 346 344 345 339 340 336 335 336 333 338 338 339 338 336 343 343 343 342 343 342 334 328 337 333 336 337 347 358 355 352 352 341 344 343 353 351 347 338 4 15 15 14 15
224 203 140 136 198 222 232 240 235 241 243 244 246 247 243 226 225 242 266 262 271 264 279 313 303 307 319 328 332 332 342 346 341 339 342 342 337 339 337 336 341 339 338 337 336 342 342 344 344 345 344 338 331 326 327 338 348 348 1 2 354 352 347 346 345 351 351 348 355 5 13 13 13 12
221 218 207 210 212 224 232 237 240 234 230 231 234 237 247 266 266 261 261 257 254 275 304 300 305 302 323 322 325 334 339 343 337 338 340 340 339 342 342 342 339 340 337 336 341 342 343 340 345 348 344 336 333 324 335 335 353 350 7 4 1 355 355 353 349 352 351 359 359 354 7 12 16 14
215 210 211 214 215 218 225 231 237 241 241 239 236 237 222 230 257 272 267 269 272 275 293 289 285 303 313 312 324 331 334 334 330 327 340 336 341 343 347 344 341 338 333 335 341 343 341 339 342 345 344 338 339 126 349 340 345 351 359 6 5 359 352 356 1 354 354 358 347 355 4 8 11 15
228 214 215 222 230 226 231 234 236 240 247 254 267 275 280 271 258 250 253 256 261 263 268 273 278 287 301 310 315 320 321 322 318 326 336 332 338 343 344 345 341 337 334 337 343 345 341 341 346 345 343 343 348 72 104 2 349 344 357 359 1 358 354 352 2 5 354 356 1 2 4 7 8 8
219 223 231 236 240 246 245 243 251 251 253 251 249 249 252 262 266 265 266 273 273 268 270 275 285 296 295 297 305 310 312 314 318 328 329 329 334 339 341 342 339 335 334 342 346 344 342 345 350 351 345 343 349 344 3 147 43 11 3 349 350 352 348 348 357 10 12 7 3 2 7 3 354 357
233 236 243 246 245 246 248 248 243 240 244 253 262 265 261 253 250 253 260 261 260 268 271 273 277 275 276 287 300 304 311 316 317 321 323 324 329 336 337 336 336 333 335 345 344 340 343 350 353 354 346 343 345 346 341 344 82 61 23 351 339 345 341 346 340 6 22 12 4 4 357 351 1 352
231 240 246 248 247 244 244 243 243 246 249 253 257 255 253 257 261 265 266 262 259 258 250 252 262 274 284 303 306 310 311 311 319 323 323 322 327 335 334 333 334 332 334 342 342 340 347 353 356 351 349 344 340 341 337 340 338 33 51 6 349 331 337 339 1 6 360 14 15 359 340 356 360 353
222 230 238 250 255 260 266 263 261 259 258 252 249 254 258 261 263 265 264 262 272 275 277 274 270 285 304 301 297 299 306 315 315 317 317 319 328 329 328 329 326 320 330 338 337 339 346 352 353 350 347 344 341 337 331 332 341 340 62 36 4 344 354 353 356 358 360 357 4 358 18 326 258 335
220 232 237 239 242 247 252 258 257 249 247 249 252 255 259 259 260 261 262 264 265 267 267 271 285 290 282 283 292 296 291 289 291 295 305 319 322 318 317 324 310 309 328 331 329 336 344 350 347 345 339 338 332 332 325 334 328 331 341 78 19 18 359 354 355 344 349 349 356 7 4 357 10 5
217 225 234 242 249 250 250 251 250 245 244 247 249 250 256 268 270 269 272 282 286 291 292 296 296 294 288 284 273 271 292 310 317 320 319 313 310 312 309 295 299 319 327 321 326 328 338 344 331 306 300 329 334 334 338 349 344 345 344 354 166 360 6 329 1 357 346 315 358 10 9 4 359 358
217 226 233 238 240 243 244 245 246 247 248 250 253 255 255 253 252 253 274 282 275 268 270 270 265 263 259 253 266 292 300 306 306 308 311 310 309 309 302 305 311 320 316 315 317 323 326 329 328 332 338 330 340 345 353 350 343 341 335 341 26 182 132 48 26 10 357 341 8 15 345 342 347 8
216 227 233 234 236 239 239 236 238 241 247 250 254 252 252 254 261 256 259 259 259 257 257 255 252 253 261 282 300 300 300 294 298 305 311 305 301 302 305 303 304 306 307 305 307 310 316 324 329 329 331 334 342 343 348 344 329 329 329 347 349 352 170 211 234 227 299 336 337 86 63 4 350 13
225 227 232 236 233 229 235 240 245 246 249 248 245 247 247 252 251 250 254 263 269 272 268 264 264 271 285 291 289 290 290 299 310 310 304 300 290 279 284 297 300 303 302 305 309 311 314 322 322 323 327 334 333 339 344 335 330 319 337 359 353 340 350 22 198 234 292 254 256 131 77 60 84 78
237 246 249 245 234 239 254 252 233 239 246 250 249 246 246 247 251 256 262 263 270 270 271 275 281 285 282 283 286 288 297 310 303 295 295 297 305 314 314 309 307 308 308 305 303 304 316 318 311 315 321 324 323 331 332 326 318 306 335 8 355 351 355 350 336 346 335 193 211 206 180 179 188 199